Regional Weather Roundup
Issued by NWS

Home | Current Version | Previous Version | Text Only | Print | Product List | Glossary On
Versions: 1 2 3 4 5 6 7 8 9 10 11 12 13 14 15 16 17 18 19 20 21 22 23 24 25 26 27 28 29 30 31 32 33 34 35 36 37 38 39 40 41 42 43 44 45 46 47 48 49 50
000
ASUS43 KLMK 180810
RWRKY
KENTUCKY REGIONAL WEATHER ROUNDUP
NATIONAL WEATHER SERVICE LOUISVILLE KY
300 AM EST THU DEC 18 2014

NOTE "FAIR" INDICATES FEW OR NO CLOUDS BELOW 12,000 FEET
WITH NO SIGNIFICANT WEATHER AND/OR OBSTRUCTIONS TO VISIBILITY.

KYZ001>023-026-027-061>063-070>075-180900-
WESTERN AND SOUTH CENTRAL KENTUCKY

CITY           SKY/WX    TMP DP  RH WIND       PRES   REMARKS
PADUCAH        LGT RAIN  33  30  88 E5        30.27F WCI  29
HENDERSON      CLOUDY    30  25  80 NE5       30.31S WCI  25
OWENSBORO      CLOUDY    30  25  82 MISG      30.31F
HOPKINSVILLE   SLEET     32  28  86 E2        30.28S
BOWLING GREEN  CLOUDY    31  24  75 CALM      30.31R
GLASGOW        CLOUDY    29  26  86 CALM      30.29R
$$

KYZ024-025-028>034-038-045-046-053-180900-
NORTH CENTRAL KENTUCKY

CITY           SKY/WX    TMP DP  RH WIND       PRES   REMARKS
LOUISVILLE/SDF CLOUDY    29  22  75 N6        30.30R WCI  23
LOUISVILLE/LOU CLOUDY    29  21  72 N5        30.30S WCI  24
FORT KNOX      CLOUDY    28  23  80 NE2       30.26S
$$

KYZ035>037-039>044-047>052-055>060-089>105-180900-
NORTHEAST KENTUCKY

CITY           SKY/WX    TMP DP  RH WIND       PRES   REMARKS
LEXINGTON      CLOUDY    28  22  78 N7        30.26S WCI  21
COVINGTON      CLOUDY    26  18  71 N7        30.28R WCI  18
FRANKFORT      CLOUDY    29  21  72 N5        30.26S WCI  24
$$

KYZ054-064>069-076>088-106>120-180900-
SOUTHEAST KENTUCKY

CITY           SKY/WX    TMP DP  RH WIND       PRES   REMARKS
JACKSON        CLOUDY    29  23  78 CALM      30.24R
LONDON         PTCLDY    26  22  84 CALM      30.24S FOG
SOMERSET       CLOUDY    25  25 100 CALM      30.27S FOG
MIDDLESBORO    MOCLDY    26  26  97 CALM      30.23F
MONTICELLO     SUNNY     22  21  96 CALM      30.28S FOG
$$



USA.gov is the U.S. government's official web portal to all federal, state and local government web resources and services.